Time,TemperatureF,DewpointF,PressureIn,WindDirection,WindDirectionDegrees,WindSpeedMPH,WindSpeedGustMPH,Humidity,HourlyPrecipIn,Conditions,Clouds,dailyrainin,SoftwareType,DateUTC
2013-03-10 00:01:00,27.0,20.0,24.32,NNE,25,0.0,0.0,74,0.00,,,0.00,,2013-03-10 07:01:00,
2013-03-10 00:11:00,26.0,19.0,24.32,NNE,25,0.0,0.0,76,0.00,,,0.00,,2013-03-10 07:11:00,
2013-03-10 00:21:00,26.0,19.0,24.32,NNE,25,0.0,0.0,76,0.00,,,0.00,,2013-03-10 07:21:00,
2013-03-10 00:31:00,26.0,19.0,24.32,NNE,25,0.0,0.0,76,0.00,,,0.00,,2013-03-10 07:31:00,
2013-03-10 00:41:00,25.0,20.0,24.32,SSE,158,0.0,0.0,80,0.00,,,0.00,,2013-03-10 07:41:00,
2013-03-10 00:52:00,25.0,20.0,24.32,SSE,158,0.0,0.0,80,0.00,,,0.00,,2013-03-10 07:52:00,
2013-03-10 01:01:00,25.0,20.0,24.32,South,183,5.0,6.0,81,0.00,,,0.00,,2013-03-10 08:01:00,
2013-03-10 01:11:00,26.0,20.0,24.32,NE,48,0.0,0.0,79,0.00,,,0.00,,2013-03-10 08:11:00,
2013-03-10 01:21:00,26.0,20.0,24.32,NE,48,0.0,0.0,79,0.00,,,0.00,,2013-03-10 08:21:00,
2013-03-10 01:31:00,26.0,21.0,24.32,SE,132,3.0,5.0,80,0.00,,,0.00,,2013-03-10 08:31:00,
2013-03-10 01:41:00,25.0,20.0,24.32,South,184,0.0,0.0,81,0.00,,,0.00,,2013-03-10 08:41:00,
2013-03-10 01:51:00,25.0,20.0,24.32,South,184,0.0,0.0,81,0.00,,,0.00,,2013-03-10 08:51:00,
2013-03-10 03:01:00,24.0,19.0,24.32,South,184,0.0,0.0,82,0.00,,,0.00,,2013-03-10 09:01:00,
2013-03-10 03:11:00,22.0,18.0,24.32,South,184,0.0,0.0,83,0.00,,,0.00,,2013-03-10 09:11:00,
2013-03-10 03:21:00,22.0,18.0,24.32,South,184,0.0,0.0,83,0.00,,,0.00,,2013-03-10 09:21:00,
2013-03-10 03:31:00,22.0,18.0,24.32,South,184,0.0,0.0,84,0.00,,,0.00,,2013-03-10 09:31:00,
2013-03-10 03:41:00,22.0,18.0,24.32,NW,325,0.0,0.0,84,0.00,,,0.00,,2013-03-10 09:41:00,
2013-03-10 03:51:00,22.0,18.0,24.32,NW,325,0.0,0.0,84,0.00,,,0.00,,2013-03-10 09:51:00,
2013-03-10 04:01:00,22.0,18.0,24.32,NW,325,0.0,0.0,83,0.00,,,0.00,,2013-03-10 10:01:00,
2013-03-10 04:11:00,21.0,17.0,24.32,NNW,335,0.0,0.0,85,0.00,,,0.00,,2013-03-10 10:11:00,
2013-03-10 04:21:00,21.0,17.0,24.32,NNW,335,0.0,0.0,85,0.00,,,0.00,,2013-03-10 10:21:00,
2013-03-10 04:31:00,21.0,17.0,24.32,NNW,335,0.0,0.0,85,0.00,,,0.00,,2013-03-10 10:31:00,
2013-03-10 04:41:00,21.0,17.0,24.32,NNW,335,0.0,0.0,84,0.00,,,0.00,,2013-03-10 10:41:00,
2013-03-10 04:52:00,21.0,17.0,24.32,NNW,335,0.0,0.0,84,0.00,,,0.00,,2013-03-10 10:52:00,
2013-03-10 05:01:00,21.0,17.0,24.32,NNW,335,0.0,0.0,84,0.00,,,0.00,,2013-03-10 11:01:00,
2013-03-10 05:11:00,22.0,18.0,24.32,NNW,335,0.0,0.0,84,0.00,,,0.00,,2013-03-10 11:11:00,
2013-03-10 05:21:00,22.0,18.0,24.32,NNW,335,0.0,0.0,84,0.00,,,0.00,,2013-03-10 11:21:00,
2013-03-10 05:31:00,21.0,17.0,24.32,NNW,335,0.0,0.0,85,0.00,,,0.00,,2013-03-10 11:31:00,
2013-03-10 05:41:00,21.0,17.0,24.32,NNW,335,0.0,0.0,85,0.00,,,0.00,,2013-03-10 11:41:00,
2013-03-10 05:52:00,21.0,17.0,24.32,NNW,335,0.0,0.0,85,0.00,,,0.00,,2013-03-10 11:52:00,
2013-03-10 06:01:00,21.0,17.0,24.32,NNW,335,0.0,0.0,85,0.00,,,0.00,,2013-03-10 12:01:00,
2013-03-10 06:11:00,21.0,17.0,24.32,NNW,335,0.0,0.0,85,0.00,,,0.00,,2013-03-10 12:11:00,
2013-03-10 06:21:00,20.0,17.0,24.32,NNW,335,0.0,0.0,87,0.00,,,0.00,,2013-03-10 12:21:00,
2013-03-10 06:31:00,19.0,16.0,24.32,NNW,335,0.0,0.0,87,0.00,,,0.00,,2013-03-10 12:31:00,
2013-03-10 06:41:00,19.0,16.0,24.32,NNW,335,0.0,0.0,87,0.00,,,0.00,,2013-03-10 12:41:00,
2013-03-10 06:51:00,19.0,16.0,24.32,NNW,335,0.0,0.0,89,0.00,,,0.00,,2013-03-10 12:51:00,
2013-03-10 07:01:00,19.0,16.0,24.32,NNW,335,0.0,0.0,88,0.00,,,0.00,,2013-03-10 13:01:00,
2013-03-10 07:11:00,19.0,16.0,24.32,NNW,335,0.0,0.0,88,0.00,,,0.00,,2013-03-10 13:11:00,
2013-03-10 07:21:00,19.0,16.0,24.32,NNW,335,0.0,0.0,89,0.00,,,0.00,,2013-03-10 13:21:00,
2013-03-10 07:31:00,19.0,16.0,24.32,NNW,335,0.0,0.0,89,0.00,,,0.00,,2013-03-10 13:31:00,
2013-03-10 07:41:00,19.0,16.0,24.32,NNW,335,0.0,0.0,89,0.00,,,0.00,,2013-03-10 13:41:00,
2013-03-10 07:52:00,19.0,16.0,24.32,NNW,335,0.0,0.0,89,0.00,,,0.00,,2013-03-10 13:52:00,
2013-03-10 08:01:00,19.0,16.0,24.32,NNW,335,0.0,0.0,89,0.00,,,0.00,,2013-03-10 14:01:00,
2013-03-10 08:11:00,19.0,16.0,24.32,NNW,335,0.0,0.0,89,0.00,,,0.00,,2013-03-10 14:11:00,
2013-03-10 08:21:00,19.0,17.0,24.32,NNW,335,0.0,0.0,90,0.00,,,0.00,,2013-03-10 14:21:00,
2013-03-10 08:31:00,20.0,18.0,24.32,NNW,335,0.0,0.0,91,0.00,,,0.00,,2013-03-10 14:31:00,
2013-03-10 08:41:00,20.0,18.0,24.32,NNW,335,0.0,0.0,91,0.00,,,0.00,,2013-03-10 14:41:00,
2013-03-10 08:51:00,21.0,19.0,24.32,NNW,335,0.0,0.0,91,0.00,,,0.00,,2013-03-10 14:51:00,
2013-03-10 09:01:00,23.0,21.0,24.32,NNW,335,0.0,0.0,90,0.00,,,0.00,,2013-03-10 15:01:00,
2013-03-10 09:11:00,23.0,21.0,24.32,NNW,335,0.0,0.0,90,0.00,,,0.00,,2013-03-10 15:11:00,
2013-03-10 09:21:00,27.0,23.0,24.32,WNW,282,0.0,0.0,83,0.00,,,0.00,,2013-03-10 15:21:00,
2013-03-10 09:31:00,27.0,22.0,24.32,WNW,282,0.0,0.0,80,0.00,,,0.00,,2013-03-10 15:31:00,
2013-03-10 09:41:00,27.0,22.0,24.32,WNW,282,0.0,0.0,80,0.00,,,0.00,,2013-03-10 15:41:00,
2013-03-10 09:52:00,29.0,23.0,24.32,WNW,282,0.0,0.0,77,0.00,,,0.00,,2013-03-10 15:52:00,
2013-03-10 10:01:00,30.0,22.0,24.32,West,276,3.0,5.0,73,0.00,,,0.00,,2013-03-10 16:01:00,
2013-03-10 10:11:00,30.0,22.0,24.32,West,276,3.0,5.0,73,0.00,,,0.00,,2013-03-10 16:11:00,
2013-03-10 10:21:00,33.0,24.0,24.32,WNW,291,5.0,5.0,70,0.00,,,0.00,,2013-03-10 16:21:00,
2013-03-10 10:31:00,33.0,24.0,24.32,WNW,284,0.0,5.0,68,0.00,,,0.00,,2013-03-10 16:31:00,
2013-03-10 10:41:00,33.0,24.0,24.32,WNW,284,0.0,5.0,68,0.00,,,0.00,,2013-03-10 16:41:00,
2013-03-10 10:52:00,37.0,26.0,24.32,WSW,246,0.0,2.0,64,0.00,,,0.00,,2013-03-10 16:52:00,
2013-03-10 11:01:00,38.0,26.0,24.32,WNW,288,0.0,0.0,62,0.00,,,0.00,,2013-03-10 17:01:00,
2013-03-10 11:11:00,38.0,26.0,24.32,WNW,288,0.0,0.0,62,0.00,,,0.00,,2013-03-10 17:11:00,
2013-03-10 11:21:00,40.0,26.0,24.32,WSW,246,1.0,1.0,58,0.00,,,0.00,,2013-03-10 17:21:00,
2013-03-10 11:31:00,41.0,27.0,24.32,WNW,290,3.0,3.0,56,0.00,,,0.00,,2013-03-10 17:31:00,
2013-03-10 11:41:00,41.0,27.0,24.32,WNW,290,3.0,3.0,56,0.00,,,0.00,,2013-03-10 17:41:00,
2013-03-10 11:51:00,43.0,28.0,24.32,SSW,195,0.0,0.0,54,0.00,,,0.00,,2013-03-10 17:51:00,
2013-03-10 12:01:00,46.0,27.0,24.32,WSW,256,7.0,7.0,48,0.00,,,0.00,,2013-03-10 18:01:00,
2013-03-10 12:11:00,47.0,25.0,24.32,West,259,10.0,14.0,41,0.00,,,0.00,,2013-03-10 18:11:00,
2013-03-10 12:21:00,47.0,25.0,24.32,West,259,10.0,14.0,41,0.00,,,0.00,,2013-03-10 18:21:00,
2013-03-10 12:31:00,47.0,24.0,24.32,WSW,243,12.0,14.0,40,0.00,,,0.00,,2013-03-10 18:31:00,
2013-03-10 12:41:00,47.0,24.0,24.32,WSW,243,12.0,14.0,40,0.00,,,0.00,,2013-03-10 18:41:00,
2013-03-10 12:52:00,49.0,25.0,24.32,WNW,295,13.0,17.0,39,0.00,,,0.00,,2013-03-10 18:52:00,
2013-03-10 13:01:00,50.0,25.0,24.32,WNW,288,9.0,9.0,37,0.00,,,0.00,,2013-03-10 19:01:00,
2013-03-10 13:11:00,50.0,25.0,24.32,WNW,288,9.0,9.0,37,0.00,,,0.00,,2013-03-10 19:11:00,
2013-03-10 13:21:00,51.0,25.0,24.32,WSW,237,12.0,15.0,36,0.00,,,0.00,,2013-03-10 19:21:00,
2013-03-10 13:31:00,52.0,25.0,24.32,West,272,10.0,15.0,34,0.00,,,0.00,,2013-03-10 19:31:00,
2013-03-10 13:41:00,52.0,25.0,24.32,West,272,10.0,15.0,34,0.00,,,0.00,,2013-03-10 19:41:00,
2013-03-10 13:52:00,53.0,25.0,24.32,WNW,290,10.0,14.0,33,0.00,,,0.00,,2013-03-10 19:52:00,
2013-03-10 14:01:00,53.0,24.0,24.32,WSW,248,13.0,14.0,32,0.00,,,0.00,,2013-03-10 20:01:00,
2013-03-10 14:11:00,53.0,24.0,24.32,WSW,248,13.0,14.0,32,0.00,,,0.00,,2013-03-10 20:11:00,
2013-03-10 14:21:00,54.0,24.0,24.32,SW,230,8.0,10.0,31,0.00,,,0.00,,2013-03-10 20:21:00,
2013-03-10 14:31:00,55.0,24.0,24.32,WSW,238,13.0,17.0,30,0.00,,,0.00,,2013-03-10 20:31:00,
2013-03-10 14:42:00,55.0,24.0,24.32,WSW,238,13.0,17.0,30,0.00,,,0.00,,2013-03-10 20:42:00,
2013-03-10 14:52:00,56.0,24.0,24.32,SW,235,14.0,18.0,29,0.00,,,0.00,,2013-03-10 20:52:00,
2013-03-10 15:01:00,56.0,23.0,24.32,WSW,254,9.0,9.0,27,0.00,,,0.00,,2013-03-10 21:01:00,
2013-03-10 15:11:00,56.0,23.0,24.32,WSW,254,9.0,9.0,27,0.00,,,0.00,,2013-03-10 21:11:00,
2013-03-10 15:22:00,56.0,23.0,24.32,WSW,256,12.0,15.0,27,0.00,,,0.00,,2013-03-10 21:22:00,
2013-03-10 15:31:00,56.0,23.0,24.32,West,264,13.0,15.0,27,0.00,,,0.00,,2013-03-10 21:31:00,
2013-03-10 15:41:00,56.0,23.0,24.32,West,264,13.0,15.0,27,0.00,,,0.00,,2013-03-10 21:41:00,
2013-03-10 15:52:00,57.0,23.0,24.32,WSW,246,12.0,15.0,27,0.00,,,0.00,,2013-03-10 21:52:00,
2013-03-10 16:01:00,57.0,22.0,24.32,WSW,244,13.0,13.0,26,0.00,,,0.00,,2013-03-10 22:01:00,
2013-03-10 16:11:00,57.0,22.0,24.32,WSW,244,13.0,13.0,26,0.00,,,0.00,,2013-03-10 22:11:00,
2013-03-10 16:21:00,57.0,22.0,24.32,WSW,237,8.0,15.0,26,0.00,,,0.00,,2013-03-10 22:21:00,
2013-03-10 16:31:00,58.0,23.0,24.32,WSW,245,13.0,13.0,26,0.00,,,0.00,,2013-03-10 22:31:00,
2013-03-10 16:42:00,58.0,23.0,24.32,WSW,245,13.0,13.0,26,0.00,,,0.00,,2013-03-10 22:42:00,
2013-03-10 16:52:00,59.0,20.0,24.32,NW,325,12.0,14.0,22,0.00,,,0.00,,2013-03-10 22:52:00,
2013-03-10 17:02:00,59.0,21.0,24.32,WNW,303,6.0,9.0,23,0.00,,,0.00,,2013-03-10 23:02:00,
2013-03-10 17:11:00,59.0,22.0,24.32,NNW,337,9.0,12.0,24,0.00,,,0.00,,2013-03-10 23:11:00,
2013-03-10 17:21:00,59.0,22.0,24.32,NNW,337,9.0,12.0,24,0.00,,,0.00,,2013-03-10 23:21:00,
2013-03-10 17:31:00,58.0,21.0,24.32,NNW,337,9.0,12.0,24,0.00,,,0.00,,2013-03-10 23:31:00,
2013-03-10 17:41:00,58.0,21.0,24.32,NNW,337,9.0,12.0,24,0.00,,,0.00,,2013-03-10 23:41:00,
2013-03-10 17:52:00,58.0,23.0,24.32,North,355,12.0,15.0,26,0.00,,,0.00,,2013-03-10 23:52:00,
2013-03-10 18:01:00,57.0,22.0,24.32,NNW,348,10.0,15.0,26,0.00,,,0.00,,2013-03-11 00:01:00,
2013-03-10 18:22:00,56.0,22.0,24.32,North,355,9.0,12.0,26,0.00,,,0.00,,2013-03-11 00:22:00,
2013-03-10 18:31:00,55.0,21.0,24.32,NNW,345,9.0,12.0,26,0.00,,,0.00,,2013-03-11 00:31:00,
2013-03-10 18:41:00,55.0,21.0,24.32,NNW,345,9.0,12.0,26,0.00,,,0.00,,2013-03-11 00:41:00,
2013-03-10 18:52:00,55.0,23.0,24.32,NNW,340,8.0,14.0,28,0.00,,,0.00,,2013-03-11 00:52:00,
2013-03-10 19:02:00,54.0,22.0,24.32,NNW,342,10.0,13.0,29,0.00,,,0.00,,2013-03-11 01:02:00,
2013-03-10 19:22:00,53.0,23.0,24.32,NNW,334,7.0,7.0,31,0.00,,,0.00,,2013-03-11 01:22:00,
2013-03-10 19:31:00,53.0,23.0,24.32,NW,322,12.0,14.0,31,0.00,,,0.00,,2013-03-11 01:31:00,
2013-03-10 19:53:00,53.0,22.0,24.32,NNW,338,13.0,16.0,29,0.00,,,0.00,,2013-03-11 01:53:00,
2013-03-10 20:01:00,52.0,21.0,24.32,NW,324,15.0,17.0,29,0.00,,,0.00,,2013-03-11 02:01:00,
2013-03-10 20:11:00,52.0,21.0,24.32,NW,324,15.0,17.0,29,0.00,,,0.00,,2013-03-11 02:11:00,
2013-03-10 20:21:00,52.0,22.0,24.32,NNW,330,9.0,16.0,30,0.00,,,0.00,,2013-03-11 02:21:00,
2013-03-10 20:31:00,52.0,22.0,24.32,NNW,328,12.0,17.0,30,0.00,,,0.00,,2013-03-11 02:31:00,
2013-03-10 20:41:00,52.0,22.0,24.32,NNW,328,12.0,17.0,30,0.00,,,0.00,,2013-03-11 02:41:00,
2013-03-10 20:52:00,51.0,22.0,24.32,NNW,327,9.0,14.0,32,0.00,,,0.00,,2013-03-11 02:52:00,
2013-03-10 21:01:00,51.0,22.0,24.32,NNW,344,12.0,12.0,32,0.00,,,0.00,,2013-03-11 03:01:00,
2013-03-10 21:21:00,51.0,24.0,24.32,NNW,337,10.0,14.0,34,0.00,,,0.00,,2013-03-11 03:21:00,
2013-03-10 21:31:00,51.0,24.0,24.32,NW,323,10.0,14.0,34,0.00,,,0.00,,2013-03-11 03:31:00,
2013-03-10 21:52:00,50.0,23.0,24.32,West,259,6.0,7.0,35,0.00,,,0.00,,2013-03-11 03:52:00,
2013-03-10 22:21:00,49.0,24.0,24.32,WNW,289,1.0,5.0,37,0.00,,,0.00,,2013-03-11 04:21:00,
2013-03-10 22:32:00,48.0,24.0,24.32,WSW,253,7.0,7.0,38,0.00,,,0.00,,2013-03-11 04:32:00,
2013-03-10 22:52:00,48.0,24.0,24.32,WSW,248,6.0,7.0,38,0.00,,,0.00,,2013-03-11 04:52:00,
2013-03-10 23:02:00,48.0,24.0,24.32,WNW,284,3.0,7.0,38,0.00,,,0.00,,2013-03-11 05:02:00,
2013-03-10 23:21:00,48.0,24.0,24.32,NW,309,3.0,8.0,39,0.00,,,0.00,,2013-03-11 05:21:00,
2013-03-10 23:31:00,48.0,23.0,24.32,NW,325,3.0,7.0,37,0.00,,,0.00,,2013-03-11 05:31:00,
2013-03-10 23:52:00,48.0,23.0,24.32,WSW,256,6.0,7.0,37,0.00,,,0.00,,2013-03-11 05:52:00,